Hourly Data Report for January 08, 2017

PORT ALBERNI (AUT)
BRITISH COLUMBIA

49°18'59.700" N
124°55'36.600" W
76.20 m
1036B06
71475
WQC

Download Data

Hourly Data (January 2017)
Hourly Data Report for January 8, 2017
TIME
LST
Temp Definition
°C
Dew Point Definition
°C
Rel Hum Definition
%
Precip. Amount Definition
mm

Wind Dir Definition
10's deg

Wind Spd Definition
km/h
Visibility Definition
km
Stn Press Definition
kPa
Hmdx Definition


Wind Chill Definition


Weather Definition


00:00 0.2 -1.5 89 0.0 7 3   100.43     LegendNANA
01:00 -0.1 -1.8 89 0.0 0 1   100.48   0 LegendNANA
02:00 -0.1 -1.7 89 1.1 21 1   100.48   0 LegendNANA
03:00 -0.3 -2.0 89 0.8   0   100.44     LegendNANA
04:00 -0.4 -2.0 89 0.1   0   100.36     LegendNANA
05:00 -0.5 -2.2 89 0.3 0 1   100.25   -1 LegendNANA
06:00 -0.6 -2.2 89 0.0   0   100.10     LegendNANA
07:00 0.3 -1.4 89 0.0 26 10   99.97     LegendNANA
08:00 0.3 -1.3 89 0.0 3 3   99.89     LegendNANA
09:00 0.4 -1.3 89 0.0 32 4   99.74     LegendNANA
10:00 1.0 -0.7 89 0.0 30 2   99.62     LegendNANA
11:00 0.9 -0.8 89 0.0 32 2   99.46     LegendNANA
12:00 0.9 -0.7 89 0.0 1 3   99.24     LegendNANA
13:00 0.6 -1.0 89 0.0 3 1   99.04     LegendNANA
14:00 1.0 -0.6 89 0.1 21 5   98.87     LegendNANA
15:00 1.0 -0.7 89 0.5 32 4   98.76     LegendNANA
16:00 0.7 -0.9 89 0.3   0   98.70     LegendNANA
17:00 0.6 -1.1 89 0.7 17 1   98.68     LegendNANA
18:00 0.4 -1.2 89 0.9   0   98.65     LegendNANA
19:00 0.2 -1.4 89 0.8   0   98.64     LegendNANA
20:00 0.1 -1.6 89 1.2 36 1   98.64     LegendNANA
21:00 0.2 -1.5 89 1.1 24 3   98.68     LegendNANA
22:00 0.1 -1.5 89 0.5 0 1   98.69     LegendNANA
23:00 0.1 -1.6 89 1.0 4 4   98.75     LegendNANA

Notes on Data Quality.

Legend

  • E = Estimated
  • M = Missing
  • NA = Not Available*
  • [empty] = Indicates an unobserved value
Date modified: